Time,TemperatureF,DewpointF,PressureIn,WindDirection,WindDirectionDegrees,WindSpeedMPH,WindSpeedGustMPH,Humidity,HourlyPrecipIn,Conditions,Clouds,dailyrainin,SolarRadiationWatts/m^2,SoftwareType,DateUTC
2013-02-05 00:22:00,-9.0,-16.0,-100.00,North,1,0.0,0.0,72,0.00,,,0.00,1.000000,,2013-02-05 05:22:00,
2013-02-05 00:32:00,-9.0,-16.0,-100.00,North,1,0.0,0.0,72,0.00,,,0.00,1.000000,,2013-02-05 05:32:00,
2013-02-05 00:42:00,-9.0,-16.0,-100.00,North,1,0.0,0.0,72,0.00,,,0.00,1.000000,,2013-02-05 05:42:00,
2013-02-05 00:52:00,-9.0,-16.0,-100.00,North,1,0.0,0.0,72,0.00,,,0.00,1.000000,,2013-02-05 05:52:00,
2013-02-05 01:21:00,-8.0,-14.0,-100.00,ENE,68,0.0,0.0,73,0.00,,,0.00,1.000000,,2013-02-05 06:21:00,
2013-02-05 01:32:00,-8.0,-14.0,-100.00,ENE,68,0.0,0.0,73,0.00,,,0.00,1.000000,,2013-02-05 06:32:00,
2013-02-05 01:42:00,-8.0,-14.0,-100.00,ENE,68,0.0,0.0,73,0.00,,,0.00,1.000000,,2013-02-05 06:42:00,
2013-02-05 01:51:00,-8.0,-14.0,-100.00,ENE,68,0.0,0.0,73,0.00,,,0.00,1.000000,,2013-02-05 06:51:00,
2013-02-05 02:22:00,-4.0,-10.0,-100.00,South,174,0.0,0.0,76,0.00,,,0.00,1.000000,,2013-02-05 07:22:00,
2013-02-05 02:32:00,-4.0,-10.0,-100.00,South,174,0.0,0.0,76,0.00,,,0.00,1.000000,,2013-02-05 07:32:00,
2013-02-05 02:42:00,-4.0,-10.0,-100.00,South,174,0.0,0.0,76,0.00,,,0.00,1.000000,,2013-02-05 07:42:00,
2013-02-05 02:52:00,-4.0,-10.0,-100.00,South,174,0.0,0.0,76,0.00,,,0.00,1.000000,,2013-02-05 07:52:00,
2013-02-05 03:21:00,1.0,-4.0,-100.00,South,171,2.0,4.0,78,0.00,,,0.00,1.000000,,2013-02-05 08:21:00,
2013-02-05 03:31:00,1.0,-4.0,-100.00,South,171,2.0,4.0,78,0.00,,,0.00,1.000000,,2013-02-05 08:31:00,
2013-02-05 03:41:00,1.0,-4.0,-100.00,South,171,2.0,4.0,78,0.00,,,0.00,1.000000,,2013-02-05 08:41:00,
2013-02-05 03:52:00,1.0,-4.0,-100.00,South,171,2.0,4.0,78,0.00,,,0.00,1.000000,,2013-02-05 08:52:00,
2013-02-05 04:21:00,5.0,0.0,-100.00,SSW,197,3.0,6.0,80,0.00,,,0.00,1.000000,,2013-02-05 09:21:00,
2013-02-05 04:32:00,5.0,0.0,-100.00,SSW,197,3.0,6.0,80,0.00,,,0.00,1.000000,,2013-02-05 09:32:00,
2013-02-05 04:42:00,5.0,0.0,-100.00,SSW,197,3.0,6.0,80,0.00,,,0.00,1.000000,,2013-02-05 09:42:00,
2013-02-05 04:51:00,5.0,0.0,-100.00,SSW,197,3.0,6.0,80,0.00,,,0.00,1.000000,,2013-02-05 09:51:00,
2013-02-05 05:21:00,5.0,0.0,-100.00,South,171,3.0,6.0,80,0.00,,,-99.99,1.000000,,2013-02-05 10:21:00,
2013-02-05 05:32:00,5.0,0.0,-100.00,South,171,3.0,6.0,80,0.00,,,-99.99,1.000000,,2013-02-05 10:32:00,
2013-02-05 05:42:00,5.0,0.0,-100.00,South,171,3.0,6.0,80,0.00,,,-99.99,1.000000,,2013-02-05 10:42:00,
2013-02-05 05:52:00,5.0,0.0,-100.00,South,171,3.0,6.0,80,0.00,,,-99.99,1.000000,,2013-02-05 10:52:00,
2013-02-05 06:22:00,7.0,2.0,-100.00,South,171,3.0,6.0,81,0.00,,,0.00,1.000000,,2013-02-05 11:22:00,
2013-02-05 06:32:00,7.0,2.0,-100.00,South,171,3.0,6.0,81,0.00,,,0.00,1.000000,,2013-02-05 11:32:00,
2013-02-05 06:42:00,7.0,2.0,-100.00,South,171,3.0,6.0,81,0.00,,,0.00,1.000000,,2013-02-05 11:42:00,
2013-02-05 06:52:00,7.0,2.0,-100.00,South,171,3.0,6.0,81,0.00,,,0.00,1.000000,,2013-02-05 11:52:00,
2013-02-05 07:22:00,8.0,4.0,-100.00,SSW,198,2.0,5.0,82,0.00,,,0.00,1.000000,,2013-02-05 12:22:00,
2013-02-05 07:32:00,8.0,4.0,-100.00,SSW,198,2.0,5.0,82,0.00,,,0.00,1.000000,,2013-02-05 12:32:00,
2013-02-05 07:42:00,8.0,4.0,-100.00,SSW,198,2.0,5.0,82,0.00,,,0.00,1.000000,,2013-02-05 12:42:00,
2013-02-05 07:52:00,8.0,4.0,-100.00,SSW,198,2.0,5.0,82,0.00,,,0.00,1.000000,,2013-02-05 12:52:00,
2013-02-05 08:22:00,8.0,4.0,-100.00,South,188,2.0,4.0,83,0.00,,,0.00,1.000000,,2013-02-05 13:22:00,
2013-02-05 08:32:00,8.0,4.0,-100.00,South,188,2.0,4.0,83,0.00,,,0.00,1.000000,,2013-02-05 13:32:00,
2013-02-05 08:42:00,8.0,4.0,-100.00,South,188,2.0,4.0,83,0.00,,,0.00,1.000000,,2013-02-05 13:42:00,
2013-02-05 08:52:00,8.0,4.0,-100.00,South,188,2.0,4.0,83,0.00,,,0.00,1.000000,,2013-02-05 13:52:00,
2013-02-05 09:21:00,9.0,5.0,-100.00,WNW,290,0.0,2.0,82,0.00,,,0.00,3.000000,,2013-02-05 14:21:00,
2013-02-05 09:32:00,9.0,5.0,-100.00,WNW,290,0.0,2.0,82,0.00,,,0.00,3.000000,,2013-02-05 14:32:00,
2013-02-05 09:42:00,9.0,5.0,-100.00,WNW,290,0.0,2.0,82,0.00,,,0.00,3.000000,,2013-02-05 14:42:00,
2013-02-05 09:52:00,9.0,5.0,-100.00,WNW,290,0.0,2.0,82,0.00,,,0.00,3.000000,,2013-02-05 14:52:00,
2013-02-05 10:21:00,11.0,7.0,-100.00,SSW,211,2.0,4.0,83,0.00,,,0.00,10.000000,,2013-02-05 15:21:00,
2013-02-05 10:32:00,11.0,7.0,-100.00,SSW,211,2.0,4.0,83,0.00,,,0.00,10.000000,,2013-02-05 15:32:00,
2013-02-05 10:41:00,11.0,7.0,-100.00,SSW,211,2.0,4.0,83,0.00,,,0.00,10.000000,,2013-02-05 15:41:00,
2013-02-05 10:52:00,11.0,7.0,-100.00,SSW,211,2.0,4.0,83,0.00,,,0.00,10.000000,,2013-02-05 15:52:00,
2013-02-05 11:22:00,15.0,9.0,-100.00,West,264,3.0,7.0,78,0.00,,,-99.99,38.000000,,2013-02-05 16:22:00,
2013-02-05 11:32:00,15.0,9.0,-100.00,West,264,3.0,7.0,78,0.00,,,-99.99,38.000000,,2013-02-05 16:32:00,
2013-02-05 11:42:00,15.0,9.0,-100.00,West,264,3.0,7.0,78,0.00,,,-99.99,38.000000,,2013-02-05 16:42:00,
2013-02-05 11:51:00,15.0,9.0,-100.00,West,264,3.0,7.0,78,0.00,,,-99.99,38.000000,,2013-02-05 16:51:00,
2013-02-05 12:22:00,18.0,11.0,-100.00,WNW,294,4.0,7.0,74,0.00,,,-99.99,65.000000,,2013-02-05 17:22:00,
2013-02-05 12:32:00,18.0,11.0,-100.00,WNW,294,4.0,7.0,74,0.00,,,-99.99,65.000000,,2013-02-05 17:32:00,
2013-02-05 12:42:00,18.0,11.0,-100.00,WNW,294,4.0,7.0,74,0.00,,,-99.99,65.000000,,2013-02-05 17:42:00,
2013-02-05 12:52:00,18.0,11.0,-100.00,WNW,294,4.0,7.0,74,0.00,,,-99.99,65.000000,,2013-02-05 17:52:00,
2013-02-05 13:22:00,20.0,14.0,-100.00,NW,308,4.0,8.0,76,0.00,,,0.00,66.000000,,2013-02-05 18:22:00,
2013-02-05 13:32:00,20.0,14.0,-100.00,NW,308,4.0,8.0,76,0.00,,,0.00,66.000000,,2013-02-05 18:32:00,
2013-02-05 13:42:00,20.0,14.0,-100.00,NW,308,4.0,8.0,76,0.00,,,0.00,66.000000,,2013-02-05 18:42:00,
2013-02-05 13:52:00,20.0,14.0,-100.00,NW,308,4.0,8.0,76,0.00,,,0.00,66.000000,,2013-02-05 18:52:00,
2013-02-05 14:21:00,20.0,14.0,-100.00,NW,317,5.0,9.0,77,0.00,,,0.00,57.000000,,2013-02-05 19:21:00,
2013-02-05 14:32:00,20.0,14.0,-100.00,NW,317,5.0,9.0,77,0.00,,,0.00,57.000000,,2013-02-05 19:32:00,
2013-02-05 14:42:00,20.0,14.0,-100.00,NW,317,5.0,9.0,77,0.00,,,0.00,57.000000,,2013-02-05 19:42:00,
2013-02-05 14:52:00,20.0,14.0,-100.00,NW,317,5.0,9.0,77,0.00,,,0.00,57.000000,,2013-02-05 19:52:00,
2013-02-05 15:21:00,18.0,12.0,-100.00,NNW,340,7.0,14.0,77,0.00,,,0.00,58.000000,,2013-02-05 20:21:00,
2013-02-05 15:32:00,18.0,12.0,-100.00,NNW,340,7.0,14.0,77,0.00,,,0.00,58.000000,,2013-02-05 20:32:00,
2013-02-05 15:42:00,18.0,12.0,-100.00,NNW,340,7.0,14.0,77,0.00,,,0.00,58.000000,,2013-02-05 20:42:00,
2013-02-05 15:52:00,18.0,12.0,-100.00,NNW,340,7.0,14.0,77,0.00,,,0.00,58.000000,,2013-02-05 20:52:00,
2013-02-05 16:22:00,18.0,12.0,-100.00,NNW,328,5.0,12.0,77,0.00,,,0.00,53.000000,,2013-02-05 21:22:00,
2013-02-05 16:32:00,18.0,12.0,-100.00,NNW,328,5.0,12.0,77,0.00,,,0.00,53.000000,,2013-02-05 21:32:00,
2013-02-05 16:42:00,18.0,12.0,-100.00,NNW,328,5.0,12.0,77,0.00,,,0.00,53.000000,,2013-02-05 21:42:00,
2013-02-05 16:52:00,18.0,12.0,-100.00,NNW,328,5.0,12.0,77,0.00,,,0.00,53.000000,,2013-02-05 21:52:00,
2013-02-05 17:22:00,15.0,10.0,-100.00,NW,323,5.0,11.0,81,0.00,,,0.00,20.000000,,2013-02-05 22:22:00,
2013-02-05 17:32:00,15.0,10.0,-100.00,NW,323,5.0,11.0,81,0.00,,,0.00,20.000000,,2013-02-05 22:32:00,
2013-02-05 17:42:00,15.0,10.0,-100.00,NW,323,5.0,11.0,81,0.00,,,0.00,20.000000,,2013-02-05 22:42:00,
2013-02-05 17:51:00,15.0,10.0,-100.00,NW,323,5.0,11.0,81,0.00,,,0.00,20.000000,,2013-02-05 22:51:00,
2013-02-05 18:22:00,14.0,9.0,-100.00,NW,324,3.0,10.0,81,0.00,,,0.00,9.000000,,2013-02-05 23:22:00,
2013-02-05 18:32:00,14.0,9.0,-100.00,NW,324,3.0,10.0,81,0.00,,,0.00,9.000000,,2013-02-05 23:32:00,
2013-02-05 18:42:00,14.0,9.0,-100.00,NW,324,3.0,10.0,81,0.00,,,0.00,9.000000,,2013-02-05 23:42:00,
2013-02-05 18:52:00,14.0,9.0,-100.00,NW,324,3.0,10.0,81,0.00,,,0.00,9.000000,,2013-02-05 23:52:00,
2013-02-05 19:22:00,13.0,9.0,-100.00,NNW,329,3.0,7.0,83,0.00,,,0.00,1.000000,,2013-02-06 00:22:00,
2013-02-05 19:32:00,13.0,9.0,-100.00,NNW,329,3.0,7.0,83,0.00,,,0.00,1.000000,,2013-02-06 00:32:00,
2013-02-05 19:42:00,13.0,9.0,-100.00,NNW,329,3.0,7.0,83,0.00,,,0.00,1.000000,,2013-02-06 00:42:00,
2013-02-05 19:52:00,13.0,9.0,-100.00,NNW,329,3.0,7.0,83,0.00,,,0.00,1.000000,,2013-02-06 00:52:00,
2013-02-05 20:22:00,11.0,7.0,-100.00,SW,220,1.0,6.0,83,0.00,,,0.00,1.000000,,2013-02-06 01:22:00,
2013-02-05 20:32:00,11.0,7.0,-100.00,SW,220,1.0,6.0,83,0.00,,,0.00,1.000000,,2013-02-06 01:32:00,
2013-02-05 20:42:00,11.0,7.0,-100.00,SW,220,1.0,6.0,83,0.00,,,0.00,1.000000,,2013-02-06 01:42:00,
2013-02-05 20:52:00,11.0,7.0,-100.00,SW,220,1.0,6.0,83,0.00,,,0.00,1.000000,,2013-02-06 01:52:00,
2013-02-05 21:22:00,8.0,4.0,-100.00,NW,307,0.0,2.0,84,0.00,,,0.00,1.000000,,2013-02-06 02:22:00,
2013-02-05 21:32:00,8.0,4.0,-100.00,NW,307,0.0,2.0,84,0.00,,,0.00,1.000000,,2013-02-06 02:32:00,
2013-02-05 21:42:00,8.0,4.0,-100.00,NW,307,0.0,2.0,84,0.00,,,0.00,1.000000,,2013-02-06 02:42:00,
2013-02-05 21:52:00,8.0,4.0,-100.00,NW,307,0.0,2.0,84,0.00,,,0.00,1.000000,,2013-02-06 02:52:00,
2013-02-05 22:22:00,5.0,1.0,-100.00,NE,35,0.0,0.0,83,0.00,,,0.00,1.000000,,2013-02-06 03:22:00,
2013-02-05 22:32:00,5.0,1.0,-100.00,NE,35,0.0,0.0,83,0.00,,,0.00,1.000000,,2013-02-06 03:32:00,
2013-02-05 22:42:00,5.0,1.0,-100.00,NE,35,0.0,0.0,83,0.00,,,0.00,1.000000,,2013-02-06 03:42:00,
2013-02-05 22:52:00,5.0,1.0,-100.00,NE,35,0.0,0.0,83,0.00,,,0.00,1.000000,,2013-02-06 03:52:00,
2013-02-05 23:21:00,3.0,-1.0,-100.00,South,190,0.0,0.0,81,0.00,,,0.00,1.000000,,2013-02-06 04:21:00,
2013-02-05 23:32:00,3.0,-1.0,-100.00,South,190,0.0,0.0,81,0.00,,,0.00,1.000000,,2013-02-06 04:32:00,
2013-02-05 23:42:00,3.0,-1.0,-100.00,South,190,0.0,0.0,81,0.00,,,0.00,1.000000,,2013-02-06 04:42:00,
2013-02-05 23:51:00,3.0,-1.0,-100.00,South,190,0.0,0.0,81,0.00,,,0.00,1.000000,,2013-02-06 04:51:00,